METEOR 2-17 DEB, 38282

Orbit data source: Space-Track

METEOR 2-17 DEB, 38282 is space debris in LEO originally from a launch on Sat, 30 Jan 1988 UTC launched from the Plesetsk Missile And Space Complex (PKMTR). Debris objects in space refer to the collection of defunct objects orbiting the Earth. Examples of debris include non-operational satellites, rocket bodies, and fragments generated from explosions, collisions, or faulty payload assembly.

Loading next visibility...
Identifier
38282, 1988-005AK
Orbit
LEO
Country
Flag of CISCIS
Related business
Manufacturer
Unknown
Mission
Spacecraft
Bus & Motor
Unknown
Mass
Unknown
Launch date (UTC)
1988-01-30 (38 years ago)
Launch vehicle
Unknown
Launch site
Plesetsk Missile And Space Complex (PKMTR)
Object type
Payload
Rocket body
Debris
Shape & HBR
Unknown
Radar Cross Section
Small (<0.1 m²)

Expand to show TLE details & history
Last TLE update: 2 days ago

TLE from 2 days ago
0 METEOR 2-17 DEB
1 38282U 88005AK  25259.86340346  .00002007  00000-0  13023-2 0  9991
2 38282  82.5370 122.4867 0027554 300.2113  59.6329 14.02040554 72562
Epoch: 2025-09-16T20:43Z
TLE epoch observation values (Epoch: 2025-09-16T20:43:18.058Z)
Latitude
-0.00004°
Longitude
175.61385°
Altitude
879.584 km
Speed
7.418 km/s
True Right ascension
08h 09m 56s
True Declination
0° 00' 00"
Sunlit
Object was in daylight at epoch
Visualization orbit readout
Latitude
Unknown
Longitude
Unknown
Altitude
Unknown
Speed
Unknown
Apparent Right ascension
Unknown
Apparent Declination
Unknown
Sunlit
N/A
Visualization observer readout
Local Sidereal Time
14:43:19
Azimuth
Unknown
Elevation
Unknown
Doppler factor
Unknown
Orbital elements
Apogee altitude
903.875 km
Perigee altitude
863.855 km
Semi-major axis
7,262.002 km
Eccentricity
0.00276
Inclination
82.537°
RAAN
122.4867°
Arg. of periapsis
300.2113°
True anomaly
59.9058°
Mean anomaly
59.6329°
Eccentric anomaly
59.7693°
Mean motion
3.50718 °/min
Orbital period
102.65 mins
BSTAR
0.0013023
Loading maneuver chart data...
Computing Atmospheric mass density...
Loading historical data...
Loading historical data...
Loading historical data...
Loading historical data...
Loading historical data...
Loading historical data...
Loading historical data...

Documentation

Showing up to 5 results
|